Regional Weather Roundup
Issued by NWS

Home | Current Version | Previous Version | Graphics & Text | Print | Product List | Glossary On
Versions: 1 2 3 4 5 6 7 8 9 10 11 12 13 14 15 16 17 18 19 20 21 22 23 24 25 26 27 28 29 30 31 32 33 34 35 36 37 38 39 40 41 42 43 44 45 46 47 48 49 50
000
ASUS45 KBOU 290607
RWRCO

WEATHER ROUNDUP FOR COLORADO
NATIONAL WEATHER SERVICE DENVER/BOULDER CO
1200 AM MDT MON JUN 29 2015

NOTE: "FAIR" INDICATES FEW OR NO CLOUDS BELOW 12000 FEET WITH NO
SIGNIFICANT WEATHER AND/OR OBSTRUCTIONS TO VISIBILITY.

COZ001>005-013-030-031-290700-
...NORTHWEST COLORADO...

CITY           SKY/WX    TMP DP  RH WIND       PRES   REMARKS
CRAIG          MOCLDY    72  44  36 E12       30.25R
HAYDEN         MOCLDY    70  41  35 SE12      30.28R
MEEKER         MOCLDY    63  46  54 NE6       30.23R
MOUNT WERNER   NOT AVBL
STEAMBOAT SPGS MOCLDY    64  44  47 CALM      30.31S
WALDEN         CLOUDY    55  50  82 SE7       30.41F
$$

COZ006>008-011-290700-
...WEST CENTRAL VALLEYS...

CITY           SKY/WX    TMP DP  RH WIND       PRES   REMARKS
GRAND JUNCTION PTCLDY    82  38  20 SE16G23   30.07R
MONTROSE       MOCLDY    77  44  30 E17       30.21R
EAGLE          NOT AVBL
RIFLE          MOCLDY    79  44  28 E12       30.16R
DELTA          MOCLDY    83  41  22 E10       30.16R
NUCLA          MOCLDY    73  43  33 SE8       30.25R
$$

COZ017>023-064>068-290700-
...SOUTHWEST COLORADO...

CITY           SKY/WX    TMP DP  RH WIND       PRES   REMARKS
DURANGO        MOCLDY    66  44  45 CALM      30.33F
CORTEZ         CLEAR     77  40  26 SE24G33   30.25S
PAGOSA SPRINGS MOCLDY    61  45  56 N3        30.44S
TELLURIDE      MOCLDY    65  41  41 SE7       30.51F
WOLF CREEK PAS NOT AVBL
$$

COZ009-010-012-014-032>034-037-058>063-290700-
...CENTRAL COLORADO...

CITY           SKY/WX    TMP DP  RH WIND       PRES   REMARKS
ASPEN          MOCLDY    64  47  53 SE10      30.40F
BUENA VISTA    CLOUDY    56  53  89 CALM      30.47F
COPPER MTN     CLOUDY    54  34  47 CALM      30.73F
BERTHOUD PASS  CLOUDY    46  37  71 CALM      30.78S
COTTONWOOD PAS NOT AVBL
GUNNISON       CLOUDY    63  43  48 CALM      30.48F
KREMMLING      CLOUDY    61  43  51 CALM      30.40R
LEADVILLE      MOCLDY    48  47  96 CALM      30.58F
MONARCH PASS   LGT RAIN  43  39  87 SW17      30.85F
SALIDA         CLOUDY    62  48  60 SW14G20   30.52S
SUNLIGHT       MOCLDY    54  45  71 NE5       30.64S
WILKERSON PASS CLOUDY    45  43  93 W7        30.71S
$$

COZ069>075-290700-
...SAN LUIS VALLEY/SANGRE DE CRISTO MOUNTAINS...

CITY           SKY/WX    TMP DP  RH WIND       PRES   REMARKS
ALAMOSA        CLOUDY    60  49  66 N7        30.47R
LA VETA PASS   DRIZZLE   46  41  81 MISG      30.63F
SAGUACHE       CLOUDY    54  50  87 N8        30.50F
$$

COZ035-036-038>040-290700-
...NORTHERN COLORADO FRONT RANGE...

CITY           SKY/WX    TMP DP  RH WIND       PRES   REMARKS
DENVER INTL AP MOCLDY    66  54  65 SW12      30.22S
DMNS CITY PARK   N/A     65  52  63 E8        30.23S
AURORA         MOCLDY    66  52  61 S10       30.25S
FRONT RANGE AP MOCLDY    66  55  68 S14       30.23S
ERIE MUNI ARPT MOCLDY    65  54  65 S5        30.21S
BOULDER MUN AP MOCLDY    66  54  63 W6        30.22S
CENTENNIAL     MOCLDY    63  54  72 S7        30.26S
BROOMFIELD     MOCLDY    64  52  63 SW5       30.25S
FORT COLLINS   CLOUDY    70  55  60 NE5       30.22S
LONGMONT       CLOUDY    69  52  54 CALM      30.22S
$$

COZ041-046-047-076>085-087-088-290700-
...PIKES PEAK/PALMER DIVIDE AND SOUTHERN FOOTHILLS...

CITY           SKY/WX    TMP DP  RH WIND       PRES   REMARKS
COLO. SPRINGS  CLOUDY    61  53  75 SE9       30.33F
A. F. ACADEMY  CLOUDY    61  54  79 CALM      30.35R
ELLICOTT       CLOUDY   N/A N/A N/A SE10      30.32F
FALCON         CLOUDY    58  51  78 SW3       30.38S
FORT CARSON    CLOUDY    62  54  77 S9        30.31R
LIMON          MOCLDY    59  56  89 S5        30.27R
MONUMENT HILL  MOCLDY    55  48  76 S12         N/A
TRINIDAD       LGT RAIN  68  52  56 N21G29    30.32R
$$

COZ042>045-048>051-090-091-290700-
...NORTHEAST COLORADO...

CITY           SKY/WX    TMP DP  RH WIND       PRES   REMARKS
GREELEY ARPT   CLOUDY    68  57  68 CALM      30.20S
AKRON          CLEAR     66  54  65 SW9       30.20R
BURLINGTON     PTCLDY    68  49  50 SE8       30.16S
WRAY           CLEAR     69  54  58 CALM      30.12R
STERLING       PTCLDY    64  54  68 S3        30.15R
HOLYOKE        CLEAR     66  55  68 SW3       30.13R
FORT MORGAN    PTCLDY    64   0   8 SW3       30.19S
$$

COZ086-089-092>099-290700-
...SOUTHEAST COLORADO...

CITY           SKY/WX    TMP DP  RH WIND       PRES   REMARKS
PUEBLO         CLOUDY    65  59  81 SE5       30.24S
LA JUNTA       LGT RAIN  65  60  84 N15G24    30.24F
LAMAR          CLOUDY    68  60  75 W21G26    30.13R
SPRINGFIELD      N/A     69  46  43 W7        30.15S
$$


USA.gov is the U.S. government's official web portal to all federal, state and local government web resources and services.